Regional Weather Roundup
Issued by NWS Newport/Morehead, NC

Home | Current Version | Previous Version | Text Only | Print | Product List | Glossary On
Versions: 1 2 3 4 5 6 7 8 9 10 11 12 13 14 15 16 17 18 19 20 21 22 23 24 25 26 27 28 29 30 31 32 33 34 35 36 37 38 39 40 41 42 43 44 45 46 47 48 49 50
000
ASUS42 KMHX 280525
RWRMHX
WEATHER ROUNDUP FOR EASTERN NORTH CAROLINA
NATIONAL WEATHER SERVICE NEWPORT/MOREHEAD CITY NC
100 AM EDT SUN AUG 28 2016

NOTE: "FAIR" INDICATES FEW OR NO CLOUDS BELOW 12,000 FEET
WITH NO SIGNIFICANT WEATHER AND/OR OBSTRUCTIONS TO VISIBILITY

NCZ015>017-031-032-045>047-102-103-280600-
NORTH COAST

CITY           SKY/WX    TMP DP  RH WIND       PRES   REMARKS
EDENTON        CLEAR    N/A N/A N/A NE3       30.15S
ELIZABETH CITY PTCLDY    77  75  93 NE12      30.15S
KITTY HAWK     PTCLDY    79  78  99 NE6       30.12F
MANTEO         CLOUDY    78  76  95 NE9       30.14S

$$

NCZ045>047-081-094-103-104-280600-
CENTRAL COAST

CITY           SKY/WX    TMP DP  RH WIND       PRES   REMARKS
FRISCO         CLOUDY    79  76  90 E3        30.12S

$$

NCZ095-097-098-100-101-280600-
SOUTHERN COAST

CITY           SKY/WX    TMP DP  RH WIND       PRES   REMARKS
BEAUFORT       CLEAR     77  76  96 N5        30.11S
CEDAR ISLAND   NOT AVBL
JACKSONVILLE   CLEAR     77  75  93 NW6       30.11S
PINEY ISLAND   NOT AVBL
WILMINGTON     CLEAR     77  74  90 NW3       30.11F


$$

NCZ011>013-027>030-043-044-078>080-089-090>093-098-280600-
COASTAL PLAIN

CITY           SKY/WX    TMP DP  RH WIND       PRES   REMARKS
AHOSKIE        CLEAR     71  69  94 CALM      30.16S
CLINTON        PTCLDY    77  77  99 CALM      30.14S
ELIZABETHTOWN  CLEAR     75  75  98 CALM      30.13S
GOLDSBORO      PTCLDY    77  77 100 E5        30.13S
GREENVILLE     CLEAR     73  73 100 CALM      30.16S
HAVELOCK       CLEAR     80  75  84 N7        30.12S
KENANSVILLE    PTCLDY    73  73 100 CALM      30.14S FOG
KINSTON        PTCLDY    75  72  90 N3        30.15S
NEW BERN       CLEAR     78  75  90 NE7       30.14S
RICHLANDS      FOG       74  73  97 CALM      30.13S VSB 1/4
ROCKY MOUNT    CLEAR     75  73  93 NE3       30.16R
WASHINGTON     CLEAR     74  73  96 NE3       30.14S
WHITEVILLE     MOCLDY    78  75  91 CALM      30.12F

$$

AMZ130-135-150-152-154-156-158-170-250-252-270-ANZ085-086-088-633-658-670-280600-
MARINE OBSERVATIONS

STATION/POSITION TIME  TEMP    WIND        PRES    WAVE   SWELL
                       AIR SEA DIR/SP/G            HT/PER HT/PER
                 (UTC) (F)     (DEG/KT/KT) (MB)    (FT/S) (FT/S)
CHESAPEAKE LIGHT NOT AVBL
64 E VA BEACH    0450   80 81   40/ 16/ 19 1020.0    4/ 8   2/ 8
DUCK             0500   80 79   30/ 15/ 17 1019.9
2 E DUCK         0511      79                N/A     4/ 5
OREGON INLET     0500   79 79   20/  8/ 12 1020.1
13E OREGON INLT  0500      82                N/A     4/ 4   3/ 4
HATTERAS CG      0500   79 84  110/  7/ 11 1019.8
DIAMOND BUOY     0450   81 84  300/  6/  6 1019.6    3/ 9   3/ 9
CAPE LOOKOUT     0500   81      10/  4/  6 1019.3
BEAUFORT LAB     0500   80 83   30/  4/  6 1018.9
30 SE NEW RVR IN 0508   81 84  100/  6/  8 1019.4
30 SE NEW RVR IN 0425      84                N/A     3/ 8
27 SE WRIGHTSVLE 0508   83 84   80/  2/  4 1019.5
5 SE WRIGHTSVLE  0508   83 84   70/  6/ 10 1020.5
225 S CAPE HAT   0450   81 84   40/ 10/ 12 1017.6    4/ 9   3/ 9
41 SE CHARLESTON 0450   83 84   80/  8/ 10 1018.1    4/ 9   3/ 9

$$



USA.gov is the U.S. government's official web portal to all federal, state and local government web resources and services.